Weather History for Baker, MT

Change the Weather History Date:

Friday, June 21, 2013

  Actual Average Record
Temperature  
Mean Temperature 59 °F -  
Max Temperature 71 °F 73 °F 91 °F (1999)
Min Temperature 48 °F 48 °F 42 °F (2004)
Degree Days  
Heating Degree Days 6    
Growing Degree Days 9 (Base 50)    
Moisture  
Dew Point 48 °F    
Average Humidity 62    
Maximum Humidity 87    
Minimum Humidity 42    
Precipitation  
Precipitation 0.02 in - - ()
Sea Level Pressure  
Sea Level Pressure 29.95 in    
Wind  
Wind Speed 10 mph (ENE)    
Max Wind Speed 25 mph    
Max Gust Speed 48 mph    
Visibility 10 miles    
Events Rain , Thunderstorm    
Averages and records for this station are not official NWS values.
T = Trace of Precipitation, MM = Missing Value Source: NWS Daily Summary

Daily Weather History Graph

Daily Weather History Graph

Search for Another Location

Airport:

Trip Planner

Search our weather history database for the weather conditions in past years. The results will help you decide how hot, cold, wet, or windy it might be!

Date:

Astronomy

Jun. 21, 2013 Rise Set
Actual Time 5:04 AM MDT 8:53 PM MDT
Civil Twilight 4:25 AM MDT 9:32 PM MDT
Nautical Twilight 3:32 AM MDT 10:24 PM MDT
Astronomical Twilight 2:17 AM MDT 11:40 PM MDT
Moon 7:02 PM MDT (6/21) 3:27 AM MDT (6/21)
Length of Visible Light 17h 06m
Length of Day
15h 48m
Waxing Gibbous, 95% of the Moon is Illuminated
Jun 21
Waxing Gibbous
Jun 23
Full
Jun 29
Last Quarter
Jul 8
New
Jul 15
First Quarter

Hourly Weather History & Observations

Time (MDT) Temp. Dew Point Humidity Pressure Visibility Wind Dir Wind Speed Gust Speed Precip Events Conditions
12:51 AM 57.0 °F 37.9 °F 49% 29.94 in 10.0 mi East 3.5 mph - N/A   Clear
1:51 AM 50.0 °F 41.0 °F 71% 29.92 in 10.0 mi ESE 4.6 mph - N/A   Clear
2:51 AM 48.9 °F 42.1 °F 77% 29.94 in 10.0 mi Calm Calm - N/A   Clear
3:51 AM 54.0 °F 42.1 °F 64% 29.93 in 10.0 mi North 3.5 mph - N/A   Overcast
4:51 AM 55.0 °F 42.1 °F 62% 29.92 in 10.0 mi NNE 4.6 mph - N/A   Partly Cloudy
5:51 AM 55.0 °F 43.0 °F 64% 29.92 in 10.0 mi NE 8.1 mph - N/A   Clear
6:31 AM 59.0 °F 42.8 °F 55% 30.03 in 10.0 mi West 21.9 mph 29.9 mph N/A Thunderstorm Mostly Cloudy
6:45 AM 57.2 °F 42.8 °F 59% 30.03 in 7.0 mi NNW 18.4 mph 48.3 mph N/A Thunderstorm Thunderstorm
6:51 AM 57.0 °F 43.0 °F 59% 29.97 in 10.0 mi North 18.4 mph 26.5 mph 0.00 in Rain , Thunderstorm Light Thunderstorms and Rain
6:56 AM 55.4 °F 42.8 °F 63% 30.01 in 10.0 mi North 17.3 mph - 0.00 in Rain , Thunderstorm Light Thunderstorms and Rain
7:05 AM 55.4 °F 44.6 °F 67% 30.01 in 10.0 mi North 15.0 mph - 0.00 in Rain Light Rain
7:51 AM 57.0 °F 46.0 °F 67% 29.97 in 10.0 mi North 17.3 mph 23.0 mph 0.02 in   Overcast
8:36 AM 62.6 °F 42.8 °F 48% 29.97 in 10.0 mi SSE 19.6 mph 31.1 mph 0.00 in   Partly Cloudy
8:41 AM 64.4 °F 41.0 °F 42% 29.98 in 10.0 mi East 12.7 mph 31.1 mph 0.00 in   Partly Cloudy
8:51 AM 63.0 °F 46.0 °F 54% 29.91 in 10.0 mi East 16.1 mph 23.0 mph 0.00 in   Clear
9:51 AM 66.0 °F 48.9 °F 54% 29.91 in 10.0 mi ENE 20.7 mph - N/A   Clear
10:51 AM 66.9 °F 53.1 °F 61% 29.91 in 10.0 mi East 25.3 mph 33.4 mph N/A   Clear
11:51 AM 66.9 °F 48.9 °F 52% 29.88 in 10.0 mi ENE 19.6 mph 26.5 mph N/A   Clear
12:51 PM 66.0 °F 48.0 °F 52% 29.90 in 10.0 mi ENE 17.3 mph - N/A   Clear
1:51 PM 68.0 °F 48.9 °F 50% 29.93 in 10.0 mi ENE 16.1 mph - N/A   Clear
2:51 PM 70.0 °F 50.0 °F 49% 29.93 in 10.0 mi ENE 17.3 mph 27.6 mph N/A   Clear
3:51 PM 69.1 °F 51.1 °F 53% 29.93 in 10.0 mi East 17.3 mph 26.5 mph N/A   Partly Cloudy
4:51 PM 68.0 °F 52.0 °F 56% 29.92 in 10.0 mi East 13.8 mph - N/A   Mostly Cloudy
5:51 PM 66.9 °F 52.0 °F 59% 29.94 in 10.0 mi ESE 11.5 mph - N/A   Scattered Clouds
6:51 PM 66.0 °F 53.1 °F 63% 29.94 in 10.0 mi ESE 13.8 mph - N/A   Mostly Cloudy
7:51 PM 66.9 °F 53.1 °F 61% 29.92 in 10.0 mi SE 9.2 mph - N/A   Clear
8:51 PM 64.9 °F 54.0 °F 68% 29.93 in 10.0 mi SSE 8.1 mph - N/A   Mostly Cloudy
9:51 PM 60.1 °F 54.0 °F 80% 29.98 in 10.0 mi SSW 5.8 mph - N/A   Partly Cloudy
10:01 PM 62.6 °F 55.4 °F 77% 30.02 in 10.0 mi SSW 5.8 mph - N/A   Mostly Cloudy
10:21 PM 62.6 °F 55.4 °F 77% 30.01 in 10.0 mi South 4.6 mph - N/A   Overcast
10:51 PM 62.1 °F 55.0 °F 78% 29.96 in 10.0 mi Calm Calm - N/A   Mostly Cloudy
11:51 PM 57.0 °F 53.1 °F 87% 29.93 in 10.0 mi Calm Calm - N/A   Clear